Location: *
(44.3925°N, 5.4708°E)
Time: 14:20:53
(UTC+00:00)

Cosmos 1674 - Pass Details

Date: 18 September 2019
Orbit: 495 x 519 km, 82.5° (Epoch: 19 October)

Event Time Altitude Azimuth Distance (km) Brightness Sun altitude
Rises 19:52:45 0° 354° (N) 2,597 6.7 -22.9°
Reaches altitude 10° 19:54:53 10° 357° (N) 1,707 5.7 -23.3°
Enters shadow 19:57:11 35° 10° (N) 829 3.8 -23.6°
